Stations météo

réclame
Mon MeteoGroup
Genova/Sestri, Italie (16120): Température de l'air & dewpoint: 13.10.2017 05:00:00 - 19.10.2017 05:00:00 (CEST)Genova/Sestri, Italie (16120): Vitesse du vent: 13.10.2017 05:00:00 - 19.10.2017 05:00:00 (CEST)Genova/Sestri, Italie (16120): Direction du vent: 13.10.2017 05:00:00 - 19.10.2017 05:00:00 (CEST)Genova/Sestri, Italie (16120): reduced air pressure: 13.10.2017 05:00:00 - 19.10.2017 05:00:00 (CEST)Genova/Sestri, Italie (16120): visibility: 13.10.2017 05:00:00 - 19.10.2017 05:00:00 (CEST)
Date & Time tt [°C] td [°C] ff [km/h] ff [knt] dd ppp [hPa] vv [km]
19.10.2017 05:00:00 14,9 10,6 9 5 NNE 1018,0 10
19.10.2017 04:00:00 15,0 11,0 9 5 NNE - 10
19.10.2017 03:00:00 15,0 11,0 9 5 N - 10
19.10.2017 02:00:00 15,5 12,4 9 5 N 1018,9 10
19.10.2017 01:00:00 16,0 13,0 8 4 NE - 10
19.10.2017 00:00:00 16,0 13,0 9 5 N - 10
18.10.2017 23:00:00 16,6 13,8 8 4 NNE 1019,5 10
18.10.2017 22:00:00 17,0 13,0 8 4 NNE - 10
18.10.2017 21:00:00 18,0 14,0 8 4 NE - 10
18.10.2017 20:00:00 17,9 13,7 8 4 SE 1018,7 10
18.10.2017 19:00:00 18,0 14,0 9 5 SE - 10
18.10.2017 18:00:00 20,0 14,0 8 4 SSE - 10
18.10.2017 17:00:00 19,9 14,2 8 4 S 1018,7 10
18.10.2017 16:00:00 20,0 14,0 8 4 S - 10
18.10.2017 15:00:00 21,0 14,0 8 4 SSE - 10
18.10.2017 14:00:00 20,7 13,4 9 5 SSE 1019,8 10
18.10.2017 13:00:00 21,0 14,0 5 3 S - 10
18.10.2017 12:00:00 20,0 14,0 4 2 - - 10
18.10.2017 11:00:00 19,1 13,0 4 2 NNE 1020,9 10
18.10.2017 10:00:00 16,0 10,0 5 3 NNE - 10
18.10.2017 09:00:00 15,0 10,0 8 4 N - 10
18.10.2017 08:00:00 14,1 9,7 9 5 N 1021,0 10
18.10.2017 07:00:00 14,0 9,0 9 5 NNE - 10
18.10.2017 06:00:00 14,0 9,0 11 6 NNE - 10
18.10.2017 05:00:00 14,1 8,5 9 5 NNE 1021,5 10
18.10.2017 04:00:00 14,0 8,0 8 4 NNE - 10
18.10.2017 03:00:00 14,0 8,0 9 5 NNE - 10
18.10.2017 02:00:00 14,4 7,9 9 5 NNE 1022,4 10
18.10.2017 01:00:00 15,0 9,0 8 4 NNE - 10
18.10.2017 00:00:00 16,0 10,0 8 4 N - 10
17.10.2017 23:00:00 15,9 10,5 9 5 NNE 1023,1 10
17.10.2017 22:00:00 16,0 11,0 9 5 NNE - 10
17.10.2017 21:00:00 17,0 12,0 8 4 NNE - 10
17.10.2017 20:00:00 17,3 12,5 5 3 NNE 1023,4 10
17.10.2017 19:00:00 19,0 13,0 2 1 WNW - 10
17.10.2017 18:00:00 20,0 13,0 5 3 SW - 10
17.10.2017 17:00:00 21,0 13,3 4 2 - 1023,5 10
17.10.2017 16:00:00 20,0 13,0 8 4 SSW - 10
17.10.2017 15:00:00 20,0 13,0 8 4 SW - 10
17.10.2017 14:00:00 20,3 13,2 5 3 SSW 1024,8 10
17.10.2017 13:00:00 20,0 11,0 4 2 - - 10
17.10.2017 12:00:00 20,0 10,0 8 4 ESE - 10
17.10.2017 11:00:00 19,6 12,5 4 2 - 1026,3 10
17.10.2017 10:00:00 17,0 9,0 8 4 NNE - 10
17.10.2017 09:00:00 14,0 7,0 5 3 NE - 10
17.10.2017 08:00:00 14,0 6,9 11 6 NNE 1025,7 10
17.10.2017 07:00:00 14,0 6,0 9 5 NNE - 10
17.10.2017 06:00:00 14,0 6,0 8 4 NNE - 10
17.10.2017 05:00:00 14,4 6,0 9 5 NNE 1026,0 10
17.10.2017 04:00:00 15,0 6,0 9 5 NNE - 10
17.10.2017 03:00:00 14,0 7,0 9 5 NNE - 10
17.10.2017 02:00:00 15,0 7,5 11 6 NNE 1026,8 10
17.10.2017 01:00:00 15,0 9,0 9 5 NNE - 10
17.10.2017 00:00:00 16,0 11,0 9 5 NNE - 10
16.10.2017 23:00:00 16,3 12,5 9 5 NNE 1027,5 10
16.10.2017 22:00:00 17,0 14,0 9 5 NNE - 10
16.10.2017 21:00:00 18,0 15,0 5 3 NNE - 10
16.10.2017 20:00:00 17,9 15,1 5 3 NNE 1027,7 10
16.10.2017 19:00:00 19,0 16,0 4 2 WSW - 10
16.10.2017 18:00:00 20,0 15,0 5 3 SW - 10
16.10.2017 17:00:00 20,1 15,5 8 4 SW 1027,5 10
16.10.2017 16:00:00 21,0 15,0 5 3 SSW - 10
16.10.2017 15:00:00 21,0 14,0 8 4 SW - 10
16.10.2017 14:00:00 20,5 13,9 5 3 SSW 1028,1 10
16.10.2017 13:00:00 20,0 14,0 5 3 SSW - 10
16.10.2017 12:00:00 20,0 14,0 8 4 SSW - 10
16.10.2017 11:00:00 19,7 13,3 5 3 WSW 1028,9 10
16.10.2017 10:00:00 17,0 6,0 5 3 NNE - 10
16.10.2017 09:00:00 15,0 6,0 9 5 NNE - 10
16.10.2017 08:00:00 13,7 6,0 9 5 NNE 1028,2 10
16.10.2017 07:00:00 14,0 7,0 11 6 NNE - 10
16.10.2017 06:00:00 14,0 7,0 11 6 NNE - 10
16.10.2017 05:00:00 14,3 7,9 9 5 NNE 1028,1 10
16.10.2017 04:00:00 15,0 8,0 11 6 NNE - 10
16.10.2017 03:00:00 15,0 9,0 11 6 NNE - 10
16.10.2017 02:00:00 15,0 9,4 13 7 NNE 1028,6 10
16.10.2017 01:00:00 15,0 11,0 11 6 NNE - 10
16.10.2017 00:00:00 16,0 12,0 9 5 NNE - 10
15.10.2017 23:00:00 15,9 12,3 9 5 NNE 1028,8 10
15.10.2017 22:00:00 17,0 14,0 9 5 NNE - 10
15.10.2017 21:00:00 17,0 15,0 8 4 NNE - 10
15.10.2017 20:00:00 18,0 15,0 5 3 NNE 1028,5 10
15.10.2017 19:00:00 19,0 16,0 5 3 WSW - 10
15.10.2017 18:00:00 20,0 15,0 5 3 SW - 10
15.10.2017 17:00:00 20,6 15,2 8 4 SW 1027,9 10
15.10.2017 16:00:00 21,0 14,0 8 4 SW - 10
15.10.2017 15:00:00 21,0 14,0 8 4 SSW - 10
15.10.2017 14:00:00 20,4 14,4 8 4 SW 1029,3 10
15.10.2017 13:00:00 21,0 15,0 8 4 SSW - 10
15.10.2017 12:00:00 20,0 14,0 8 4 SW - 10
15.10.2017 11:00:00 19,7 13,6 4 2 - 1030,2 10
15.10.2017 10:00:00 17,0 8,0 8 4 NE - 10
15.10.2017 09:00:00 15,0 8,0 11 6 NNE - 10
15.10.2017 08:00:00 13,7 7,5 11 6 NNE 1029,1 10
15.10.2017 07:00:00 14,0 8,0 11 6 NNE - 10
15.10.2017 06:00:00 14,0 8,0 9 5 NNE - 10
15.10.2017 05:00:00 14,3 8,9 9 5 NNE 1028,6 10
15.10.2017 04:00:00 15,0 9,0 8 4 NNE - 10
15.10.2017 03:00:00 15,0 12,0 11 6 NNE - 10
15.10.2017 02:00:00 15,2 11,7 9 5 NNE 1029,3 10
15.10.2017 01:00:00 16,0 13,0 9 5 NNE - 10
15.10.2017 00:00:00 16,0 14,0 9 5 NNE - 10
14.10.2017 23:00:00 16,5 14,2 9 5 NNE 1029,1 10
14.10.2017 22:00:00 17,0 15,0 9 5 NNE - 10
14.10.2017 21:00:00 18,0 15,0 8 4 NNE - 10
14.10.2017 20:00:00 18,3 14,7 4 2 - 1028,5 10
14.10.2017 19:00:00 19,0 14,0 4 2 - - 10
14.10.2017 18:00:00 20,0 14,0 5 3 SSW - 10
14.10.2017 17:00:00 20,5 14,5 8 4 SW 1027,7 10
14.10.2017 16:00:00 21,0 15,0 8 4 SSW - 10
14.10.2017 15:00:00 21,0 15,0 9 5 SSW - 10
14.10.2017 14:00:00 21,3 14,6 9 5 SW 1028,1 10
14.10.2017 13:00:00 21,0 15,0 8 4 SW - 10
14.10.2017 12:00:00 21,0 14,0 8 4 SW - 10
14.10.2017 11:00:00 20,7 14,0 4 2 - 1028,9 10
14.10.2017 10:00:00 18,0 11,0 8 4 NNE - 10
14.10.2017 09:00:00 16,0 11,0 11 6 NNE - 10
14.10.2017 08:00:00 14,9 12,1 11 6 NNE 1027,7 10
14.10.2017 07:00:00 15,0 12,0 11 6 NNE - 10
14.10.2017 06:00:00 15,0 12,0 11 6 NNE - 10
14.10.2017 05:00:00 15,1 12,3 9 5 NNE 1027,6 10
14.10.2017 04:00:00 16,0 13,0 9 5 N - 10
14.10.2017 03:00:00 16,0 13,0 9 5 NNE - 10
14.10.2017 02:00:00 16,0 13,0 11 6 NNE 1027,3 10
14.10.2017 01:00:00 16,0 13,0 11 6 NNE - 10
14.10.2017 00:00:00 17,0 13,0 11 6 NNE - 10
13.10.2017 23:00:00 17,0 13,7 9 5 NNE 1027,2 10
13.10.2017 22:00:00 18,0 14,0 11 6 NNE - 10
13.10.2017 21:00:00 18,0 14,0 9 5 NNE - 10
13.10.2017 20:00:00 18,6 13,5 5 3 NNE 1026,8 10
13.10.2017 19:00:00 20,0 14,0 4 2 - - 10
13.10.2017 18:00:00 21,0 14,0 5 3 W - 10
13.10.2017 17:00:00 21,5 13,3 5 3 SW 1026,5 10
13.10.2017 16:00:00 22,0 13,0 8 4 SSW - 10
13.10.2017 15:00:00 22,0 14,0 8 4 S - 10
13.10.2017 14:00:00 22,1 14,9 11 6 SSE 1027,3 10
13.10.2017 13:00:00 22,0 15,0 11 6 SSE - 10
13.10.2017 12:00:00 21,0 14,0 5 3 SSE - 10
13.10.2017 11:00:00 21,0 12,9 4 2 - 1027,8 10
13.10.2017 10:00:00 20,0 13,0 4 2 N - 10
13.10.2017 09:00:00 18,0 14,0 8 4 N - 10
13.10.2017 08:00:00 17,7 14,0 8 4 NNE 1026,5 10
13.10.2017 07:00:00 18,0 14,0 8 4 NNE - 10
13.10.2017 06:00:00 18,0 14,0 5 3 N - 10
13.10.2017 05:00:00 17,4 14,2 8 4 N 1026,2 10

tt = Température de l'air
td = dewpoint
ff = Vitesse du vent
dd = Direction du vent
ppp = reduced air pressure
vv = visibility

stations d'obs. à proximité